This demonstration page uses our WeatherBlox Daily Observations layout. Learn more.

Hourly Observations for December 9, 2016

Temp ( °F °C ) Dew Point ( °F °C ) Humidity (%) Winds ( mph kmh ) Pressure ( in mb ) Visibility ( mi km ) Precip ( " mm )
12:15 am 00:15 Clear 6 -14.5 0 -17.9 76 76 Calm 30.8 1043 10 16.0934 0 0
12:35 am 00:35 Clear 4 -15.7 -2 -19 76 76 Calm 30.77 1042 10 16.0934 0 0
12:55 am 00:55 Clear 6 -14.2 1 -17.4 77 77 Calm 30.77 1042 10 16.0934 0 0
1:15 am 01:15 Clear 5 -15.1 -1 -18.5 75 75 Calm 30.77 1042 10 16.0934 0 0
1:35 am 01:35 Clear 4 -15.5 -1 -18.4 79 79 Calm 30.77 1042 10 16.0934 0 0
1:55 am 01:55 Clear 4 -15.6 -1 -18.5 79 79 Calm 30.77 1042 10 16.0934 0 0
2:15 am 02:15 Clear 4 -15.5 -1 -18.4 79 79 Calm 30.74 1041 10 16.0934 0 0
2:35 am 02:35 Clear 5 -15 0 -18 78 78 Calm 30.74 1041 10 16.0934 0 0
2:55 am 02:55 Clear 5 -15.1 -1 -18.3 77 77 Calm 30.74 1041 10 16.0934 0 0
3:15 am 03:15 Clear 3 -16 -2 -19.1 77 77 SE 3 6 30.74 1041 10 16.0934 0 0
3:35 am 03:35 Clear 3 -16.2 -3 -19.4 77 77 SE 3 6 30.74 1041 10 16.0934 0 0
3:55 am 03:55 Clear 3 -15.9 -2 -18.9 78 78 SE 6 9 30.74 1041 10 16.0934 0 0
4:15 am 04:15 Clear 5 -15 0 -18 78 78 SE 6 9 30.74 1041 10 16.0934 0 0
4:35 am 04:35 Partly Cloudy 6 -14.6 1 -17.5 79 79 ESE 5 7 30.74 1041 10 16.0934 0 0
4:55 am 04:55 Cloudy 9 -13 3 -16 78 78 SE 5 7 30.68 1039 10 16.0934 0 0
5:15 am 05:15 Cloudy 10 -12.5 4 -15.8 77 77 SE 6 9 30.68 1039 10 16.0934 0 0
5:35 am 05:35 Cloudy 10 -12 4 -15.3 77 77 SSE 7 11 30.68 1039 10 16.0934 0 0
5:55 am 05:55 Cloudy 11 -11.6 5 -15.2 75 75 SSE 6 9 30.68 1039 10 16.0934 0 0
6:15 am 06:15 Cloudy 12 -11.2 6 -14.7 76 76 SSE 5 7 30.65 1038 10 16.0934 0 0
6:35 am 06:35 Cloudy 13 -10.5 7 -14 76 76 SSE 6 9 30.65 1038 10 16.0934 0 0
6:55 am 06:55 Cloudy 13 -10.5 8 -13.6 78 78 SSE 3 6 30.65 1038 10 16.0934 0 0
7:15 am 07:15 Cloudy 15 -9.6 7 -13.8 72 72 SSE 9 15 30.62 1037 10 16.0934 0 0
7:35 am 07:35 Cloudy 15 -9.6 7 -14 71 71 SSE 10 17 30.62 1037 10 16.0934 0 0
7:55 am 07:55 Cloudy 15 -9.7 7 -14 71 71 SSE 10 17 30.65 1038 10 16.0934 0 0
8:15 am 08:15 Cloudy 15 -9.6 7 -13.7 72 72 SSE 10 17 30.62 1037 10 16.0934 0 0
8:35 am 08:35 Cloudy 15 -9.5 8 -13.5 73 73 SSE 12 19 30.62 1037 10 16.0934 0 0
8:55 am 08:55 Cloudy 15 -9.2 8 -13.3 72 72 SSE 14 22 30.62 1037 10 16.0934 0 0
9:15 am 09:15 Cloudy 16 -9 9 -13 73 73 SSE 13 20 30.62 1037 10 16.0934 0 0
9:35 am 09:35 Cloudy 16 -8.9 9 -13 72 72 SSE 15 24 30.62 1037 10 16.0934 0 0
9:55 am 09:55 Cloudy 17 -8.5 9 -12.7 72 72 SSE 10 17 30.59 1036 10 16.0934 0 0
10:15 am 10:15 Cloudy 17 -8.2 9 -12.6 71 71 SSE 12 19 30.62 1037 10 16.0934 0 0
10:35 am 10:35 Cloudy 18 -8 9 -12.6 70 70 SSE 16 26 30.62 1037 10 16.0934 0 0
10:55 am 10:55 Cloudy 18 -7.6 10 -12.5 68 68 SSE 14 22 30.59 1036 10 16.0934 0 0
11:15 am 11:15 Cloudy 19 -7.3 10 -12.2 68 68 SSE 18 30 30.56 1035 10 16.0934 0 0
11:35 am 11:35 Cloudy 20 -6.8 11 -11.8 68 68 SSE 16 26 30.56 1035 10 16.0934 0 0
11:55 am 11:55 Cloudy 20 -6.8 10 -12 67 67 SSE 15 24 30.56 1035 10 16.0934 0 0
12:15 pm 12:15 Cloudy 20 -6.7 10 -12.2 65 65 SSE 16 26 30.53 1034 10 16.0934 0 0
12:35 pm 12:35 Cloudy 21 -6.3 11 -11.8 65 65 S 16 26 30.5 1033 10 16.0934 0 0
12:55 pm 12:55 Cloudy 21 -6.2 12 -11.3 68 68 S 18 30 30.48 1032 10 16.0934 0 0
1:15 pm 13:15 Cloudy 22 -5.7 13 -10.8 68 68 S 14 22 30.48 1032 10 16.0934 0 0
1:35 pm 13:35 Cloudy 22 -5.3 13 -10.7 66 66 SSE 16 26 30.45 1031 10 16.0934 0 0
1:55 pm 13:55 Cloudy 23 -5 13 -10.5 66 66 S 14 22 30.45 1031 10 16.0934 0 0
2:15 pm 14:15 Cloudy 24 -4.6 13 -10.4 64 64 S 12 19 30.45 1031 10 16.0934 0 0
2:35 pm 14:35 Cloudy 24 -4.7 13 -10.5 64 64 S 9 15 30.48 1032 10 16.0934 0 0
2:55 pm 14:55 Partly Cloudy 25 -4.1 13 -10.4 62 62 SSE 9 15 30.48 1032 10 16.0934 0 0
3:15 pm 15:15 Partly Cloudy 25 -3.8 13 -10.5 60 60 S 10 17 30.48 1032 10 16.0934 0 0
3:35 pm 15:35 Partly Cloudy 25 -3.7 13 -10.5 60 60 S 9 15 30.48 1032 10 16.0934 0 0
3:55 pm 15:55 Sunny 25 -3.7 13 -10.8 58 58 SSE 7 11 30.48 1032 10 16.0934 0 0
4:15 pm 16:15 Sunny 25 -4 13 -10.8 60 60 S 7 11 30.48 1032 10 16.0934 0 0
4:35 pm 16:35 Sunny 25 -4.1 13 -10.5 61 61 SSE 8 13 30.48 1032 10 16.0934 0 0
4:55 pm 16:55 Sunny 23 -4.9 13 -10.7 64 64 SE 7 11 30.48 1032 10 16.0934 0 0
5:15 pm 17:15 Clear 21 -6.3 12 -11.2 69 69 SE 7 11 30.48 1032 10 16.0934 0 0
5:35 pm 17:35 Clear 18 -7.6 11 -11.9 72 72 SE 7 11 30.5 1033 10 16.0934 0 0
5:55 pm 17:55 Clear 16 -8.8 10 -12.2 77 77 ESE 8 13 30.5 1033 10 16.0934 0 0
6:15 pm 18:15 Clear 17 -8.4 10 -12 76 76 SE 6 9 30.53 1034 10 16.0934 0 0
6:35 pm 18:35 Clear 15 -9.7 9 -12.7 79 79 ESE 7 11 30.56 1035 10 16.0934 0 0
6:55 pm 18:55 Clear 15 -9.7 10 -12.5 80 80 ESE 8 13 30.56 1035 10 16.0934 0 0
7:15 pm 19:15 Clear 15 -9.5 10 -12.4 80 80 E 8 13 30.56 1035 10 16.0934 0 0
7:35 pm 19:35 Clear 14 -9.9 9 -12.7 80 80 ESE 8 13 30.56 1035 10 16.0934 0 0
7:55 pm 19:55 Clear 14 -10.1 9 -12.7 81 81 E 7 11 30.56 1035 10 16.0934 0 0
8:15 pm 20:15 Clear 14 -10 10 -12.5 82 82 E 8 13 30.56 1035 10 16.0934 0 0
8:35 pm 20:35 Clear 14 -10.1 9 -12.7 81 81 ESE 8 13 30.53 1034 10 16.0934 0 0
8:55 pm 20:55 Clear 15 -9.6 10 -12.1 82 82 ESE 9 15 30.56 1035 10 16.0934 0 0
9:15 pm 21:15 Clear 15 -9.6 10 -12.2 82 82 ESE 8 13 30.53 1034 10 16.0934 0 0
9:35 pm 21:35 Clear 14 -9.8 10 -12.2 83 83 ESE 9 15 30.53 1034 10 16.0934 0 0
9:55 pm 21:55 Clear 14 -10.1 9 -12.6 82 82 E 9 15 30.53 1034 10 16.0934 0 0
10:15 pm 22:15 Clear 12 -10.9 8 -13.1 84 84 ESE 8 13 30.53 1034 10 16.0934 0 0
10:35 pm 22:35 Clear 12 -11.3 8 -13.5 84 84 ESE 7 11 30.53 1034 10 16.0934 0 0
10:55 pm 22:55 Clear 12 -11.2 8 -13.4 84 84 SE 6 9 30.53 1034 10 16.0934 0 0
11:15 pm 23:15 Clear 11 -11.4 8 -13.5 85 85 SE 6 9 30.56 1035 10 16.0934 0 0
11:35 pm 23:35 Partly Cloudy 11 -11.5 8 -13.5 85 85 ESE 7 11 30.56 1035 10 16.0934 0 0
11:55 pm 23:55 Clear 12 -10.9 9 -12.9 85 85 ESE 3 6 30.56 1035 10 16.0934 0 0

Powered by AerisWeather